Time,TemperatureF,DewpointF,PressureIn,WindDirection,WindDirectionDegrees,WindSpeedMPH,WindSpeedGustMPH,Humidity,HourlyPrecipIn,Conditions,Clouds,dailyrainin,SolarRadiationWatts/m^2,SoftwareType,DateUTC
2013-04-14 00:00:00,60.8,46.8,29.74,South,170,6.0,10.0,60,0.00,,CLR,0.20,0.00,VWS V14.01,2013-04-14 05:00:00,
2013-04-14 00:05:00,60.6,46.7,29.74,SSE,168,4.0,10.0,60,0.00,,CLR,0.00,0.00,VWS V14.01,2013-04-14 05:05:00,
2013-04-14 00:10:00,60.6,46.7,29.74,South,170,5.0,13.0,60,0.00,,CLR,0.00,0.00,VWS V14.01,2013-04-14 05:10:00,
2013-04-14 00:15:00,60.8,46.8,29.74,South,172,3.0,12.0,60,0.00,,CLR,0.00,0.00,VWS V14.01,2013-04-14 05:15:00,
2013-04-14 00:20:00,60.9,46.5,29.74,South,173,2.0,15.0,59,0.00,,CLR,0.00,0.00,VWS V14.01,2013-04-14 05:20:00,
2013-04-14 00:25:00,61.2,46.8,29.74,South,189,3.0,12.0,59,0.00,,CLR,0.00,0.00,VWS V14.01,2013-04-14 05:25:00,
2013-04-14 00:30:00,61.2,46.8,29.74,South,175,5.0,14.0,59,0.00,,CLR,0.00,0.00,VWS V14.01,2013-04-14 05:30:00,
2013-04-14 00:35:00,61.4,47.0,29.74,South,179,6.0,13.0,59,0.00,,CLR,0.00,0.00,VWS V14.01,2013-04-14 05:35:00,
2013-04-14 00:40:00,61.4,47.0,29.74,South,174,4.0,13.0,59,0.00,,CLR,0.00,0.00,VWS V14.01,2013-04-14 05:40:00,
2013-04-14 00:45:00,61.4,47.0,29.74,SSE,161,8.0,12.0,59,0.00,,CLR,0.00,0.00,VWS V14.01,2013-04-14 05:45:00,
2013-04-14 00:50:00,61.4,47.0,29.74,SSE,167,5.0,13.0,59,0.00,,CLR,0.00,0.00,VWS V14.01,2013-04-14 05:50:00,
2013-04-14 00:55:00,61.2,46.8,29.74,SSE,159,5.0,16.0,59,0.00,,CLR,0.00,0.00,VWS V14.01,2013-04-14 05:55:00,
2013-04-14 01:00:00,61.2,46.8,29.73,SSE,168,2.0,18.0,59,0.00,,CLR,0.00,0.00,VWS V14.01,2013-04-14 06:00:00,
2013-04-14 01:05:00,61.1,46.7,29.73,SSW,205,4.0,16.0,59,0.00,,CLR,0.00,0.00,VWS V14.01,2013-04-14 06:05:00,
2013-04-14 01:10:00,60.9,46.5,29.73,South,176,10.0,14.0,59,0.00,,CLR,0.00,0.00,VWS V14.01,2013-04-14 06:10:00,
2013-04-14 01:15:00,60.9,46.5,29.73,SSE,162,3.0,20.0,59,0.00,,CLR,0.00,0.00,VWS V14.01,2013-04-14 06:15:00,
2013-04-14 01:20:00,60.9,46.5,29.73,SSE,165,9.0,16.0,59,0.00,,CLR,0.00,0.00,VWS V14.01,2013-04-14 06:20:00,
2013-04-14 01:25:00,60.9,46.5,29.73,South,178,7.0,14.0,59,0.00,,CLR,0.00,0.00,VWS V14.01,2013-04-14 06:25:00,
2013-04-14 01:30:00,60.8,46.4,29.73,South,169,3.0,13.0,59,0.00,,CLR,0.00,0.00,VWS V14.01,2013-04-14 06:30:00,
2013-04-14 01:35:00,60.8,46.4,29.73,South,184,4.0,14.0,59,0.00,,CLR,0.00,0.00,VWS V14.01,2013-04-14 06:35:00,
2013-04-14 01:40:00,60.8,46.4,29.73,South,169,3.0,17.0,59,0.00,,CLR,0.00,0.00,VWS V14.01,2013-04-14 06:40:00,
2013-04-14 01:45:00,60.6,46.2,29.73,South,175,6.0,13.0,59,0.00,,CLR,0.00,0.00,VWS V14.01,2013-04-14 06:45:00,
2013-04-14 01:50:00,60.6,46.2,29.73,SSE,166,6.0,14.0,59,0.00,,CLR,0.00,0.00,VWS V14.01,2013-04-14 06:50:00,
2013-04-14 01:55:00,60.6,46.2,29.73,SE,146,7.0,16.0,59,0.00,,CLR,0.00,0.00,VWS V14.01,2013-04-14 06:55:00,
2013-04-14 02:00:00,60.5,46.1,29.72,South,175,5.0,16.0,59,0.00,,CLR,0.00,0.00,VWS V14.01,2013-04-14 07:00:00,
2013-04-14 02:05:00,60.3,45.9,29.72,South,184,11.0,13.0,59,0.00,,CLR,0.00,0.00,VWS V14.01,2013-04-14 07:05:00,
2013-04-14 02:10:00,60.1,46.2,29.72,South,184,8.0,15.0,60,0.00,,CLR,0.00,0.00,VWS V14.01,2013-04-14 07:10:00,
2013-04-14 02:15:00,60.1,46.2,29.71,SSE,152,10.0,14.0,60,0.00,,CLR,0.00,0.00,VWS V14.01,2013-04-14 07:15:00,
2013-04-14 02:20:00,60.0,46.1,29.71,South,178,5.0,13.0,60,0.00,,CLR,0.00,0.00,VWS V14.01,2013-04-14 07:20:00,
2013-04-14 02:25:00,59.8,45.9,29.71,SSE,161,7.0,13.0,60,0.00,,CLR,0.00,0.00,VWS V14.01,2013-04-14 07:25:00,
2013-04-14 02:30:00,59.8,45.9,29.71,SSE,156,5.0,12.0,60,0.00,,CLR,0.00,0.00,VWS V14.01,2013-04-14 07:30:00,
2013-04-14 02:35:00,59.7,45.8,29.71,South,171,9.0,12.0,60,0.00,,CLR,0.00,0.00,VWS V14.01,2013-04-14 07:35:00,
2013-04-14 02:40:00,59.5,46.1,29.71,South,175,3.0,14.0,61,0.00,,CLR,0.00,0.00,VWS V14.01,2013-04-14 07:40:00,
2013-04-14 02:45:00,59.5,46.1,29.71,South,175,5.0,13.0,61,0.00,,CLR,0.00,0.00,VWS V14.01,2013-04-14 07:45:00,
2013-04-14 02:50:00,59.4,46.0,29.71,SSE,167,5.0,10.0,61,0.00,,CLR,0.00,0.00,VWS V14.01,2013-04-14 07:50:00,
2013-04-14 02:55:00,59.2,46.2,29.71,SSE,165,9.0,13.0,62,0.00,,CLR,0.00,0.00,VWS V14.01,2013-04-14 07:55:00,
2013-04-14 03:00:00,58.9,45.9,29.70,SSE,168,0.0,10.0,62,0.00,,CLR,0.00,0.00,VWS V14.01,2013-04-14 08:00:00,
2013-04-14 03:05:00,58.7,45.7,29.70,South,169,9.0,14.0,62,0.00,,CLR,0.00,0.00,VWS V14.01,2013-04-14 08:05:00,
2013-04-14 03:10:00,58.6,45.6,29.70,South,174,3.0,11.0,62,0.00,,CLR,0.00,0.00,VWS V14.01,2013-04-14 08:10:00,
2013-04-14 03:15:00,58.4,45.9,29.70,South,172,6.0,12.0,63,0.00,,CLR,0.00,0.00,VWS V14.01,2013-04-14 08:15:00,
2013-04-14 03:20:00,58.3,45.8,29.70,SSE,156,8.0,8.0,63,0.00,,CLR,0.00,0.00,VWS V14.01,2013-04-14 08:20:00,
2013-04-14 03:25:00,58.1,46.0,29.70,South,175,4.0,10.0,64,0.00,,CLR,0.00,0.00,VWS V14.01,2013-04-14 08:25:00,
2013-04-14 03:30:00,58.0,45.9,29.70,South,173,0.0,10.0,64,0.00,,CLR,0.00,0.00,VWS V14.01,2013-04-14 08:30:00,
2013-04-14 03:35:00,58.0,45.9,29.70,SSE,166,4.0,6.0,64,0.00,,CLR,0.00,0.00,VWS V14.01,2013-04-14 08:35:00,
2013-04-14 03:40:00,57.8,45.7,29.70,South,173,6.0,11.0,64,0.00,,CLR,0.00,0.00,VWS V14.01,2013-04-14 08:40:00,
2013-04-14 03:45:00,57.8,45.7,29.69,SSE,158,8.0,9.0,64,0.00,,CLR,0.00,0.00,VWS V14.01,2013-04-14 08:45:00,
2013-04-14 03:50:00,57.7,46.0,29.69,SSE,168,9.0,11.0,65,0.00,,CLR,0.00,0.00,VWS V14.01,2013-04-14 08:50:00,
2013-04-14 03:55:00,57.7,46.0,29.69,SSE,160,6.0,11.0,65,0.00,,CLR,0.00,0.00,VWS V14.01,2013-04-14 08:55:00,
2013-04-14 04:00:00,57.7,46.0,29.68,South,189,0.0,12.0,65,0.00,,CLR,0.00,0.00,VWS V14.01,2013-04-14 09:00:00,
2013-04-14 04:05:00,57.7,46.0,29.68,South,173,5.0,11.0,65,0.00,,CLR,0.00,0.00,VWS V14.01,2013-04-14 09:05:00,
2013-04-14 04:10:00,57.7,46.0,29.68,SSE,167,6.0,12.0,65,0.00,,CLR,0.00,0.00,VWS V14.01,2013-04-14 09:10:00,
2013-04-14 04:15:00,57.7,46.0,29.67,South,177,8.0,13.0,65,0.00,,CLR,0.00,0.00,VWS V14.01,2013-04-14 09:15:00,
2013-04-14 04:20:00,57.7,46.4,29.67,South,170,3.0,13.0,66,0.00,,CLR,0.00,0.00,VWS V14.01,2013-04-14 09:20:00,
2013-04-14 04:25:00,57.7,46.4,29.67,SSE,163,7.0,10.0,66,0.00,,CLR,0.00,0.00,VWS V14.01,2013-04-14 09:25:00,
2013-04-14 04:30:00,57.7,46.4,29.67,SSE,163,6.0,13.0,66,0.00,,CLR,0.00,0.00,VWS V14.01,2013-04-14 09:30:00,
2013-04-14 04:35:00,57.5,46.2,29.67,SSE,161,6.0,9.0,66,0.00,,CLR,0.00,0.00,VWS V14.01,2013-04-14 09:35:00,
2013-04-14 04:40:00,57.5,46.2,29.67,SSE,153,7.0,14.0,66,0.00,,CLR,0.00,0.00,VWS V14.01,2013-04-14 09:40:00,
2013-04-14 04:45:00,57.4,46.5,29.66,South,186,12.0,12.0,67,0.00,,CLR,0.00,0.00,VWS V14.01,2013-04-14 09:45:00,
2013-04-14 04:50:00,57.4,46.5,29.66,SSW,213,0.0,10.0,67,0.00,,CLR,0.00,0.00,VWS V14.01,2013-04-14 09:50:00,
2013-04-14 04:55:00,57.2,46.4,29.66,South,169,2.0,9.0,67,0.00,,CLR,0.00,0.00,VWS V14.01,2013-04-14 09:55:00,
2013-04-14 05:00:00,57.2,46.4,29.65,SSE,167,0.0,11.0,67,0.00,,CLR,0.00,0.00,VWS V14.01,2013-04-14 10:00:00,
2013-04-14 05:05:00,57.2,46.4,29.65,South,175,2.0,10.0,67,0.00,,CLR,0.00,0.00,VWS V14.01,2013-04-14 10:05:00,
2013-04-14 05:10:00,57.2,46.4,29.65,South,169,0.0,17.0,67,0.00,,CLR,0.00,0.00,VWS V14.01,2013-04-14 10:10:00,
2013-04-14 05:15:00,57.1,46.3,29.65,South,186,3.0,11.0,67,0.00,,CLR,0.00,0.00,VWS V14.01,2013-04-14 10:15:00,
2013-04-14 05:20:00,57.1,46.3,29.65,South,173,1.0,11.0,67,0.00,,CLR,0.00,0.00,VWS V14.01,2013-04-14 10:20:00,
2013-04-14 05:25:00,57.1,46.7,29.65,South,173,0.0,11.0,68,0.00,,CLR,0.00,0.00,VWS V14.01,2013-04-14 10:25:00,
2013-04-14 05:30:00,57.1,46.7,29.64,South,174,10.0,12.0,68,0.00,,CLR,0.00,0.00,VWS V14.01,2013-04-14 10:30:00,
2013-04-14 05:35:00,57.1,46.7,29.64,SSW,193,4.0,10.0,68,0.00,,CLR,0.00,0.00,VWS V14.01,2013-04-14 10:35:00,
2013-04-14 05:40:00,56.9,46.5,29.64,SSE,168,0.0,12.0,68,0.00,,CLR,0.00,0.00,VWS V14.01,2013-04-14 10:40:00,
2013-04-14 05:45:00,56.9,46.5,29.63,SSE,167,9.0,13.0,68,0.00,,CLR,0.00,0.00,VWS V14.01,2013-04-14 10:45:00,
2013-04-14 05:50:00,56.8,46.4,29.63,SSE,164,0.0,13.0,68,0.00,,CLR,0.00,0.00,VWS V14.01,2013-04-14 10:50:00,
2013-04-14 05:55:00,56.8,46.8,29.63,South,169,0.0,13.0,69,0.00,,CLR,0.00,0.00,VWS V14.01,2013-04-14 10:55:00,
2013-04-14 06:00:00,56.8,46.8,29.63,SSE,163,3.0,11.0,69,0.00,,CLR,0.00,0.00,VWS V14.01,2013-04-14 11:00:00,
2013-04-14 06:05:00,56.6,46.6,29.63,South,171,0.0,12.0,69,0.00,,CLR,0.00,0.00,VWS V14.01,2013-04-14 11:05:00,
2013-04-14 06:10:00,56.6,46.6,29.63,South,169,5.0,12.0,69,0.00,,CLR,0.00,0.00,VWS V14.01,2013-04-14 11:10:00,
2013-04-14 06:15:00,56.6,46.6,29.63,South,181,5.0,12.0,69,0.00,,CLR,0.00,0.00,VWS V14.01,2013-04-14 11:15:00,
2013-04-14 06:20:00,56.6,46.6,29.63,SSE,162,6.0,10.0,69,0.00,,CLR,0.00,0.00,VWS V14.01,2013-04-14 11:20:00,
2013-04-14 06:25:00,56.5,46.5,29.63,South,171,9.0,14.0,69,0.00,,CLR,0.00,0.00,VWS V14.01,2013-04-14 11:25:00,
2013-04-14 06:30:00,56.5,46.5,29.64,South,172,0.0,12.0,69,0.00,,CLR,0.00,0.00,VWS V14.01,2013-04-14 11:30:00,
2013-04-14 06:35:00,56.3,46.3,29.64,South,171,6.0,11.0,69,0.00,,CLR,0.00,0.00,VWS V14.01,2013-04-14 11:35:00,
2013-04-14 06:40:00,56.1,46.5,29.64,SSE,165,7.0,9.0,70,0.00,,CLR,0.00,0.00,VWS V14.01,2013-04-14 11:40:00,
2013-04-14 06:45:00,56.0,46.4,29.65,South,176,5.0,10.0,70,0.00,,CLR,0.00,0.00,VWS V14.01,2013-04-14 11:45:00,
2013-04-14 06:50:00,55.8,46.5,29.65,South,171,2.0,13.0,71,0.00,,CLR,0.00,0.00,VWS V14.01,2013-04-14 11:50:00,
2013-04-14 06:55:00,55.7,46.5,29.65,SSE,165,6.0,12.0,71,0.00,,CLR,0.00,8.05,VWS V14.01,2013-04-14 11:55:00,
2013-04-14 07:00:00,55.7,46.5,29.65,SSE,161,7.0,15.0,71,0.00,,CLR,0.00,13.80,VWS V14.01,2013-04-14 12:00:00,
2013-04-14 07:05:00,55.5,46.6,29.65,South,175,0.0,12.0,72,0.00,,CLR,0.00,20.70,VWS V14.01,2013-04-14 12:05:00,
2013-04-14 07:10:00,55.5,46.6,29.65,South,170,5.0,12.0,72,0.00,,CLR,0.00,26.45,VWS V14.01,2013-04-14 12:10:00,
2013-04-14 07:15:00,55.4,46.5,29.65,SSE,166,4.0,11.0,72,0.00,,CLR,0.00,32.20,VWS V14.01,2013-04-14 12:15:00,
2013-04-14 07:20:00,55.4,46.5,29.65,SSE,162,0.0,11.0,72,0.00,,CLR,0.00,42.55,VWS V14.01,2013-04-14 12:20:00,
2013-04-14 07:25:00,55.5,46.6,29.65,South,176,11.0,11.0,72,0.00,,CLR,0.00,48.30,VWS V14.01,2013-04-14 12:25:00,
2013-04-14 07:30:00,55.5,47.0,29.65,South,169,11.0,11.0,73,0.00,,CLR,0.00,54.05,VWS V14.01,2013-04-14 12:30:00,
2013-04-14 07:35:00,55.7,46.8,29.65,SSE,167,0.0,12.0,72,0.00,,CLR,0.00,69.00,VWS V14.01,2013-04-14 12:35:00,
2013-04-14 07:40:00,55.8,46.9,29.65,SSE,167,2.0,7.0,72,0.00,,CLR,0.00,93.15,VWS V14.01,2013-04-14 12:40:00,
2013-04-14 07:45:00,56.1,47.2,29.65,South,172,0.0,12.0,72,0.00,,CLR,0.00,129.95,VWS V14.01,2013-04-14 12:45:00,
2013-04-14 07:50:00,56.6,47.3,29.65,SSE,165,4.0,9.0,71,0.00,,CLR,0.00,147.20,VWS V14.01,2013-04-14 12:50:00,
2013-04-14 07:55:00,57.1,47.4,29.65,South,173,12.0,14.0,70,0.00,,CLR,0.00,167.90,VWS V14.01,2013-04-14 12:55:00,
2013-04-14 08:00:00,57.7,47.6,29.65,South,180,6.0,15.0,69,0.00,,CLR,0.00,192.05,VWS V14.01,2013-04-14 13:00:00,
2013-04-14 08:05:00,58.3,48.2,29.65,South,177,3.0,6.0,69,0.00,,CLR,0.00,213.90,VWS V14.01,2013-04-14 13:05:00,
2013-04-14 08:10:00,58.9,48.4,29.65,SSE,167,14.0,19.0,68,0.00,,CLR,0.00,242.65,VWS V14.01,2013-04-14 13:10:00,
2013-04-14 08:15:00,59.4,48.5,29.65,SSE,159,5.0,11.0,67,0.00,,CLR,0.00,272.55,VWS V14.01,2013-04-14 13:15:00,
2013-04-14 08:20:00,60.0,48.6,29.65,South,179,11.0,12.0,66,0.00,,CLR,0.00,296.70,VWS V14.01,2013-04-14 13:20:00,
2013-04-14 08:25:00,60.5,48.7,29.65,South,170,0.0,12.0,65,0.00,,CLR,0.00,317.40,VWS V14.01,2013-04-14 13:25:00,
2013-04-14 08:30:00,60.8,48.6,29.65,South,180,0.0,13.0,64,0.00,,CLR,0.00,287.50,VWS V14.01,2013-04-14 13:30:00,
2013-04-14 08:35:00,60.9,48.7,29.65,SW,214,4.0,14.0,64,0.00,,CLR,0.00,338.10,VWS V14.01,2013-04-14 13:35:00,
2013-04-14 08:40:00,61.4,48.7,29.65,SSE,168,4.0,18.0,63,0.00,,CLR,0.00,373.75,VWS V14.01,2013-04-14 13:40:00,
2013-04-14 08:45:00,62.0,48.8,29.65,South,186,7.0,10.0,62,0.00,,CLR,0.00,410.55,VWS V14.01,2013-04-14 13:45:00,
2013-04-14 08:50:00,62.5,49.3,29.65,SSE,161,6.0,19.0,62,0.00,,CLR,0.00,428.95,VWS V14.01,2013-04-14 13:50:00,
2013-04-14 08:55:00,63.3,49.2,29.65,SSW,211,1.0,13.0,60,0.00,,CLR,0.00,392.15,VWS V14.01,2013-04-14 13:55:00,
2013-04-14 09:00:00,63.5,48.9,29.65,South,185,14.0,18.0,59,0.00,,CLR,0.00,402.50,VWS V14.01,2013-04-14 14:00:00,
2013-04-14 09:05:00,64.3,50.1,29.65,South,190,5.0,12.0,60,0.00,,CLR,0.00,527.85,VWS V14.01,2013-04-14 14:05:00,
2013-04-14 09:10:00,64.5,49.9,29.65,South,176,5.0,23.0,59,0.00,,CLR,0.00,224.25,VWS V14.01,2013-04-14 14:10:00,
2013-04-14 09:15:00,64.3,49.2,29.65,SSE,155,6.0,17.0,58,0.00,,CLR,0.00,437.00,VWS V14.01,2013-04-14 14:15:00,
2013-04-14 09:20:00,64.5,49.0,29.65,South,170,10.0,20.0,57,0.00,,CLR,0.00,171.35,VWS V14.01,2013-04-14 14:20:00,
2013-04-14 09:25:00,64.1,49.0,29.65,SSE,167,5.0,14.0,58,0.00,,CLR,0.00,196.65,VWS V14.01,2013-04-14 14:25:00,
2013-04-14 09:30:00,65.4,49.3,29.65,SSW,192,9.0,17.0,56,0.00,,CLR,0.00,547.40,VWS V14.01,2013-04-14 14:30:00,
2013-04-14 09:35:00,66.1,49.5,29.65,South,182,13.0,19.0,55,0.00,,CLR,0.00,512.90,VWS V14.01,2013-04-14 14:35:00,
2013-04-14 09:40:00,65.8,49.7,29.65,WSW,239,2.0,17.0,56,0.00,,CLR,0.00,638.25,VWS V14.01,2013-04-14 14:40:00,
2013-04-14 09:45:00,66.1,49.0,29.63,SSE,162,8.0,21.0,54,0.00,,CLR,0.00,320.85,VWS V14.01,2013-04-14 14:45:00,
2013-04-14 09:50:00,65.9,48.8,29.63,South,174,6.0,21.0,54,0.00,,CLR,0.00,338.10,VWS V14.01,2013-04-14 14:50:00,
2013-04-14 09:55:00,66.6,49.5,29.63,SSW,209,12.0,24.0,54,0.00,,CLR,0.00,600.30,VWS V14.01,2013-04-14 14:55:00,
2013-04-14 10:00:00,66.9,49.7,29.62,SSE,165,11.0,19.0,54,0.00,,CLR,0.00,288.65,VWS V14.01,2013-04-14 15:00:00,
2013-04-14 10:05:00,67.9,49.7,29.62,South,180,5.0,17.0,52,0.00,,CLR,0.00,565.80,VWS V14.01,2013-04-14 15:05:00,
2013-04-14 10:10:00,67.9,49.1,29.62,SSE,161,16.0,20.0,51,0.00,,CLR,0.00,346.15,VWS V14.01,2013-04-14 15:10:00,
2013-04-14 10:15:00,68.3,49.5,29.61,SSE,147,11.0,19.0,51,0.00,,CLR,0.00,568.10,VWS V14.01,2013-04-14 15:15:00,
2013-04-14 10:20:00,68.4,48.5,29.61,SSW,197,12.0,23.0,49,0.00,,CLR,0.00,693.45,VWS V14.01,2013-04-14 15:20:00,
2013-04-14 10:25:00,68.9,49.0,29.61,SSW,195,13.0,18.0,49,0.00,,CLR,0.00,557.75,VWS V14.01,2013-04-14 15:25:00,
2013-04-14 10:30:00,69.1,49.2,29.61,SW,214,6.0,26.0,49,0.00,,CLR,0.00,549.70,VWS V14.01,2013-04-14 15:30:00,
2013-04-14 10:35:00,68.8,48.9,29.61,SSW,207,5.0,29.0,49,0.00,,CLR,0.00,354.20,VWS V14.01,2013-04-14 15:35:00,
2013-04-14 10:40:00,68.1,48.2,29.61,SSE,167,9.0,23.0,49,0.00,,CLR,0.00,432.40,VWS V14.01,2013-04-14 15:40:00,
2013-04-14 10:45:00,68.3,49.0,29.61,SSE,164,9.0,23.0,50,0.00,,CLR,0.00,408.25,VWS V14.01,2013-04-14 15:45:00,
2013-04-14 10:50:00,68.8,48.9,29.61,SSW,196,4.0,22.0,49,0.00,,CLR,0.00,714.15,VWS V14.01,2013-04-14 15:50:00,
2013-04-14 10:55:00,69.3,49.3,29.61,SW,220,15.0,20.0,49,0.00,,CLR,0.00,456.55,VWS V14.01,2013-04-14 15:55:00,
2013-04-14 11:00:00,69.1,48.6,29.60,South,169,9.0,28.0,48,0.00,,CLR,0.00,362.25,VWS V14.01,2013-04-14 16:00:00,
2013-04-14 11:05:00,68.9,48.4,29.60,SSE,168,10.0,26.0,48,0.00,,CLR,0.00,480.70,VWS V14.01,2013-04-14 16:05:00,
2013-04-14 11:10:00,69.1,48.6,29.60,SSE,165,12.0,28.0,48,0.00,,CLR,0.00,539.35,VWS V14.01,2013-04-14 16:10:00,
2013-04-14 11:15:00,70.1,49.5,29.60,SSE,163,14.0,23.0,48,0.00,,CLR,0.00,714.15,VWS V14.01,2013-04-14 16:15:00,
2013-04-14 11:20:00,70.6,48.8,29.60,SSW,200,20.0,27.0,46,0.00,,CLR,0.00,778.55,VWS V14.01,2013-04-14 16:20:00,
2013-04-14 11:25:00,71.7,49.2,29.60,South,183,16.0,21.0,45,0.00,,CLR,0.00,872.85,VWS V14.01,2013-04-14 16:25:00,
2013-04-14 11:30:00,71.7,49.2,29.58,SSW,196,14.0,27.0,45,0.00,,CLR,0.00,871.70,VWS V14.01,2013-04-14 16:30:00,
2013-04-14 11:35:00,72.0,48.9,29.58,South,178,17.0,23.0,44,0.00,,CLR,0.00,879.75,VWS V14.01,2013-04-14 16:35:00,
2013-04-14 11:40:00,72.0,48.9,29.58,SSE,163,9.0,26.0,44,0.00,,CLR,0.00,885.50,VWS V14.01,2013-04-14 16:40:00,
2013-04-14 11:45:00,72.2,49.1,29.58,South,171,24.0,30.0,44,0.00,,CLR,0.00,895.85,VWS V14.01,2013-04-14 16:45:00,
2013-04-14 11:50:00,72.5,49.4,29.58,South,188,5.0,28.0,44,0.00,,CLR,0.00,907.35,VWS V14.01,2013-04-14 16:50:00,
2013-04-14 11:55:00,73.1,49.3,29.58,SSW,201,4.0,27.0,43,0.00,,CLR,0.00,907.35,VWS V14.01,2013-04-14 16:55:00,
2013-04-14 12:00:00,73.1,48.7,29.57,SSE,161,19.0,26.0,42,0.00,,CLR,0.00,909.65,VWS V14.01,2013-04-14 17:00:00,
2013-04-14 12:05:00,73.1,49.3,29.57,South,182,14.0,27.0,43,0.00,,CLR,0.00,933.80,VWS V14.01,2013-04-14 17:05:00,
2013-04-14 12:10:00,73.6,48.5,29.57,South,174,12.0,30.0,41,0.00,,CLR,0.00,939.55,VWS V14.01,2013-04-14 17:10:00,
2013-04-14 12:15:00,73.9,48.7,29.56,SSW,211,11.0,30.0,41,0.00,,CLR,0.00,955.65,VWS V14.01,2013-04-14 17:15:00,
2013-04-14 12:20:00,74.1,48.3,29.56,SSE,168,17.0,30.0,40,0.00,,CLR,0.00,966.00,VWS V14.01,2013-04-14 17:20:00,
2013-04-14 12:25:00,74.1,48.3,29.56,SSE,159,21.0,32.0,40,0.00,,CLR,0.00,962.55,VWS V14.01,2013-04-14 17:25:00,
2013-04-14 12:30:00,74.5,48.6,29.55,SSE,155,6.0,27.0,40,0.00,,CLR,0.00,960.25,VWS V14.01,2013-04-14 17:30:00,
2013-04-14 12:35:00,74.5,49.3,29.55,South,180,24.0,28.0,41,0.00,,CLR,0.00,963.70,VWS V14.01,2013-04-14 17:35:00,
2013-04-14 12:40:00,74.5,48.6,29.55,South,184,21.0,28.0,40,0.00,,CLR,0.00,966.00,VWS V14.01,2013-04-14 17:40:00,
2013-04-14 12:45:00,75.2,49.2,29.55,South,169,3.0,18.0,40,0.00,,CLR,0.00,968.30,VWS V14.01,2013-04-14 17:45:00,
2013-04-14 12:50:00,75.7,49.0,29.55,South,174,0.0,21.0,39,0.00,,CLR,0.00,970.60,VWS V14.01,2013-04-14 17:50:00,
2013-04-14 12:55:00,76.1,48.7,29.55,South,186,13.0,25.0,38,0.00,,CLR,0.00,976.35,VWS V14.01,2013-04-14 17:55:00,
2013-04-14 13:00:00,75.7,48.3,29.53,SSE,150,15.0,24.0,38,0.00,,CLR,0.00,978.65,VWS V14.01,2013-04-14 18:00:00,
2013-04-14 13:05:00,75.9,48.5,29.53,South,181,2.0,24.0,38,0.00,,CLR,0.00,982.10,VWS V14.01,2013-04-14 18:05:00,
2013-04-14 13:10:00,75.9,49.2,29.53,South,173,12.0,23.0,39,0.00,,CLR,0.00,982.10,VWS V14.01,2013-04-14 18:10:00,
2013-04-14 13:15:00,76.2,50.1,29.53,SE,146,10.0,23.0,40,0.00,,CLR,0.00,986.70,VWS V14.01,2013-04-14 18:15:00,
2013-04-14 13:20:00,76.2,50.1,29.53,SSE,166,15.0,31.0,40,0.00,,CLR,0.00,980.95,VWS V14.01,2013-04-14 18:20:00,
2013-04-14 13:25:00,76.6,49.1,29.53,South,183,1.0,20.0,38,0.00,,CLR,0.00,982.10,VWS V14.01,2013-04-14 18:25:00,
2013-04-14 13:30:00,76.6,49.8,29.53,SSE,164,10.0,29.0,39,0.00,,CLR,0.00,984.40,VWS V14.01,2013-04-14 18:30:00,
2013-04-14 13:35:00,77.3,50.4,29.53,South,180,7.0,20.0,39,0.00,,CLR,0.00,978.65,VWS V14.01,2013-04-14 18:35:00,
2013-04-14 13:40:00,77.5,50.6,29.53,SW,222,3.0,21.0,39,0.00,,CLR,0.00,978.65,VWS V14.01,2013-04-14 18:40:00,
2013-04-14 13:45:00,78.1,49.0,29.53,SSE,163,12.0,19.0,36,0.00,,CLR,0.00,980.95,VWS V14.01,2013-04-14 18:45:00,
2013-04-14 13:50:00,77.9,49.6,29.53,SSW,196,10.0,21.0,37,0.00,,CLR,0.00,974.05,VWS V14.01,2013-04-14 18:50:00,
2013-04-14 13:55:00,78.1,51.2,29.53,SSW,198,5.0,18.0,39,0.00,,CLR,0.00,968.30,VWS V14.01,2013-04-14 18:55:00,
2013-04-14 14:00:00,78.4,50.0,29.54,SSE,156,10.0,17.0,37,0.00,,CLR,0.00,963.70,VWS V14.01,2013-04-14 19:00:00,
2013-04-14 14:05:00,78.6,50.2,29.54,SSW,208,16.0,23.0,37,0.00,,CLR,0.00,962.55,VWS V14.01,2013-04-14 19:05:00,
2013-04-14 14:10:00,78.3,49.9,29.54,SE,128,7.0,26.0,37,0.00,,CLR,0.00,955.65,VWS V14.01,2013-04-14 19:10:00,
2013-04-14 14:14:00,78.4,50.7,29.53,SSW,193,7.0,22.0,38,0.00,,CLR,0.00,955.65,VWS V14.01,2013-04-14 19:14:00,
2013-04-14 14:19:00,78.4,50.0,29.53,SSW,200,12.0,22.0,37,0.00,,CLR,0.00,954.50,VWS V14.01,2013-04-14 19:19:00,
2013-04-14 14:24:00,78.4,50.0,29.53,South,180,15.0,24.0,37,0.00,,CLR,0.00,946.45,VWS V14.01,2013-04-14 19:24:00,
2013-04-14 14:29:00,78.4,50.7,29.51,South,181,0.0,22.0,38,0.00,,CLR,0.00,939.55,VWS V14.01,2013-04-14 19:29:00,
2013-04-14 14:34:00,78.8,50.4,29.51,SSW,204,12.0,22.0,37,0.00,,CLR,0.00,936.10,VWS V14.01,2013-04-14 19:34:00,
2013-04-14 14:39:00,78.8,51.1,29.51,SSE,166,14.0,25.0,38,0.00,,CLR,0.00,928.05,VWS V14.01,2013-04-14 19:39:00,
2013-04-14 14:44:00,79.2,50.7,29.51,SSW,198,11.0,19.0,37,0.00,,CLR,0.00,920.00,VWS V14.01,2013-04-14 19:44:00,
2013-04-14 14:49:00,79.4,51.6,29.51,SSW,203,0.0,21.0,38,0.00,,CLR,0.00,911.95,VWS V14.01,2013-04-14 19:49:00,
2013-04-14 14:54:00,79.4,50.9,29.51,South,189,2.0,19.0,37,0.00,,CLR,0.00,897.00,VWS V14.01,2013-04-14 19:54:00,
2013-04-14 14:59:00,79.4,50.9,29.51,South,179,12.0,20.0,37,0.00,,CLR,0.00,891.25,VWS V14.01,2013-04-14 19:59:00,
2013-04-14 15:04:00,79.0,50.5,29.51,SSE,162,3.0,28.0,37,0.00,,CLR,0.00,883.20,VWS V14.01,2013-04-14 20:04:00,
2013-04-14 15:09:00,79.6,51.1,29.51,South,177,18.0,25.0,37,0.00,,CLR,0.00,872.85,VWS V14.01,2013-04-14 20:09:00,
2013-04-14 15:14:00,79.4,51.6,29.50,South,184,16.0,19.0,38,0.00,,CLR,0.00,859.05,VWS V14.01,2013-04-14 20:14:00,
2013-04-14 15:19:00,79.4,50.9,29.50,South,181,17.0,17.0,37,0.00,,CLR,0.00,851.00,VWS V14.01,2013-04-14 20:19:00,
2013-04-14 15:24:00,79.0,51.2,29.50,South,184,7.0,24.0,38,0.00,,CLR,0.00,838.35,VWS V14.01,2013-04-14 20:24:00,
2013-04-14 15:29:00,79.4,51.6,29.50,SSW,196,9.0,18.0,38,0.00,,CLR,0.00,826.85,VWS V14.01,2013-04-14 20:29:00,
2013-04-14 15:34:00,79.6,51.1,29.50,South,170,3.0,22.0,37,0.00,,CLR,0.00,813.05,VWS V14.01,2013-04-14 20:34:00,
2013-04-14 15:39:00,79.4,52.3,29.50,SSW,198,7.0,21.0,39,0.00,,CLR,0.00,794.65,VWS V14.01,2013-04-14 20:39:00,
2013-04-14 15:44:00,79.9,51.3,29.49,South,173,14.0,19.0,37,0.00,,CLR,0.00,788.90,VWS V14.01,2013-04-14 20:44:00,
2013-04-14 15:49:00,79.9,51.3,29.49,South,171,12.0,21.0,37,0.00,,CLR,0.00,776.25,VWS V14.01,2013-04-14 20:49:00,
2013-04-14 15:54:00,79.7,51.2,29.49,SSW,193,4.0,21.0,37,0.00,,CLR,0.00,763.60,VWS V14.01,2013-04-14 20:54:00,
2013-04-14 15:59:00,79.9,52.0,29.49,SSE,158,6.0,19.0,38,0.00,,CLR,0.00,752.10,VWS V14.01,2013-04-14 20:59:00,
2013-04-14 16:04:00,79.9,51.3,29.49,South,185,10.0,20.0,37,0.00,,CLR,0.00,736.00,VWS V14.01,2013-04-14 21:04:00,
2013-04-14 16:09:00,79.9,52.0,29.49,SSE,167,17.0,19.0,38,0.00,,CLR,0.00,722.20,VWS V14.01,2013-04-14 21:09:00,
2013-04-14 16:14:00,79.9,52.0,29.48,South,174,11.0,19.0,38,0.00,,CLR,0.00,709.55,VWS V14.01,2013-04-14 21:14:00,
2013-04-14 16:19:00,80.3,52.4,29.48,South,181,9.0,17.0,38,0.00,,CLR,0.00,695.75,VWS V14.01,2013-04-14 21:19:00,
2013-04-14 16:24:00,80.3,52.4,29.48,SSW,212,10.0,18.0,38,0.00,,CLR,0.00,672.75,VWS V14.01,2013-04-14 21:24:00,
2013-04-14 16:29:00,80.3,52.4,29.48,South,175,11.0,21.0,38,0.00,,CLR,0.00,671.60,VWS V14.01,2013-04-14 21:29:00,
2013-04-14 16:34:00,80.3,51.7,29.48,SW,219,5.0,18.0,37,0.00,,CLR,0.00,632.50,VWS V14.01,2013-04-14 21:34:00,
2013-04-14 16:39:00,80.1,51.5,29.48,South,173,4.0,19.0,37,0.00,,CLR,0.00,626.75,VWS V14.01,2013-04-14 21:39:00,
2013-04-14 16:44:00,80.1,51.5,29.49,SSW,196,8.0,26.0,37,0.00,,CLR,0.00,618.70,VWS V14.01,2013-04-14 21:44:00,
2013-04-14 16:49:00,80.3,51.7,29.49,SSW,196,13.0,27.0,37,0.00,,CLR,0.00,596.85,VWS V14.01,2013-04-14 21:49:00,
2013-04-14 16:54:00,79.9,52.0,29.49,South,180,9.0,33.0,38,0.00,,CLR,0.00,571.55,VWS V14.01,2013-04-14 21:54:00,
2013-04-14 16:59:00,79.6,52.5,29.49,SW,222,12.0,26.0,39,0.00,,CLR,0.00,119.60,VWS V14.01,2013-04-14 21:59:00,
2013-04-14 17:04:00,79.4,52.3,29.49,South,189,5.0,18.0,39,0.00,,CLR,0.00,488.75,VWS V14.01,2013-04-14 22:04:00,
2013-04-14 17:09:00,79.0,52.0,29.49,SW,218,3.0,19.0,39,0.00,,CLR,0.00,555.45,VWS V14.01,2013-04-14 22:09:00,
2013-04-14 17:14:00,79.6,53.2,29.49,South,175,13.0,22.0,40,0.00,,CLR,0.00,535.90,VWS V14.01,2013-04-14 22:14:00,
2013-04-14 17:19:00,79.6,52.5,29.49,SW,230,7.0,22.0,39,0.00,,CLR,0.00,115.00,VWS V14.01,2013-04-14 22:19:00,
2013-04-14 17:24:00,79.2,52.8,29.49,SSE,161,2.0,20.0,40,0.00,,CLR,0.00,115.00,VWS V14.01,2013-04-14 22:24:00,
2013-04-14 17:29:00,78.8,53.1,29.49,SSE,152,11.0,21.0,41,0.00,,CLR,0.00,123.05,VWS V14.01,2013-04-14 22:29:00,
2013-04-14 17:34:00,78.4,53.4,29.49,South,190,9.0,14.0,42,0.00,,CLR,0.00,351.90,VWS V14.01,2013-04-14 22:34:00,
2013-04-14 17:39:00,78.4,53.4,29.49,South,191,0.0,14.0,42,0.00,,CLR,0.00,184.00,VWS V14.01,2013-04-14 22:39:00,
2013-04-14 17:44:00,78.4,53.4,29.49,South,184,6.0,19.0,42,0.00,,CLR,0.00,285.20,VWS V14.01,2013-04-14 22:44:00,
2013-04-14 17:49:00,78.6,53.6,29.49,South,180,7.0,17.0,42,0.00,,CLR,0.00,404.80,VWS V14.01,2013-04-14 22:49:00,
2013-04-14 17:54:00,78.6,54.3,29.49,South,188,9.0,12.0,43,0.00,,CLR,0.00,373.75,VWS V14.01,2013-04-14 22:54:00,
2013-04-14 17:59:00,78.6,54.3,29.49,SSW,200,4.0,12.0,43,0.00,,CLR,0.00,351.90,VWS V14.01,2013-04-14 22:59:00,
2013-04-14 18:04:00,78.8,53.8,29.49,South,180,12.0,18.0,42,0.00,,CLR,0.00,141.45,VWS V14.01,2013-04-14 23:04:00,
2013-04-14 18:09:00,78.8,53.8,29.49,SW,214,7.0,19.0,42,0.00,,CLR,0.00,123.05,VWS V14.01,2013-04-14 23:09:00,
2013-04-14 18:14:00,78.8,53.8,29.50,South,184,6.0,15.0,42,0.00,,CLR,0.00,72.45,VWS V14.01,2013-04-14 23:14:00,
2013-04-14 18:19:00,78.6,54.3,29.50,SSW,213,6.0,17.0,43,0.00,,CLR,0.00,69.00,VWS V14.01,2013-04-14 23:19:00,
2013-04-14 18:24:00,78.4,54.1,29.50,South,178,6.0,17.0,43,0.00,,CLR,0.00,56.35,VWS V14.01,2013-04-14 23:24:00,
2013-04-14 18:29:00,78.3,54.0,29.51,South,189,7.0,15.0,43,0.00,,CLR,0.00,60.95,VWS V14.01,2013-04-14 23:29:00,
2013-04-14 18:34:00,78.1,53.8,29.51,SSW,192,9.0,13.0,43,0.00,,CLR,0.00,77.05,VWS V14.01,2013-04-14 23:34:00,
2013-04-14 18:39:00,77.9,53.6,29.51,SSE,165,6.0,13.0,43,0.00,,CLR,0.00,79.35,VWS V14.01,2013-04-14 23:39:00,
2013-04-14 18:44:00,77.9,54.3,29.51,SSW,200,0.0,15.0,44,0.00,,CLR,0.00,93.15,VWS V14.01,2013-04-14 23:44:00,
2013-04-14 18:49:00,77.9,54.3,29.51,SSW,208,10.0,12.0,44,0.00,,CLR,0.00,77.05,VWS V14.01,2013-04-14 23:49:00,
2013-04-14 18:54:00,77.9,53.6,29.51,SSW,200,4.0,11.0,43,0.00,,CLR,0.00,52.90,VWS V14.01,2013-04-14 23:54:00,
2013-04-14 18:59:00,77.7,53.5,29.51,SSW,202,9.0,18.0,43,0.00,,CLR,0.00,36.80,VWS V14.01,2013-04-14 23:59:00,
2013-04-14 19:04:00,77.5,53.9,29.52,WSW,252,2.0,14.0,44,0.00,,SCT075,0.00,37.95,VWS V14.01,2013-04-15 00:04:00,
2013-04-14 19:09:00,77.3,53.7,29.52,SW,222,0.0,9.0,44,0.00,,SCT075,0.00,62.10,VWS V14.01,2013-04-15 00:09:00,
2013-04-14 19:14:00,77.1,53.5,29.52,SSW,197,9.0,18.0,44,0.00,,SCT075,0.00,56.35,VWS V14.01,2013-04-15 00:14:00,
2013-04-14 19:19:00,77.1,54.2,29.52,SSW,202,10.0,10.0,45,0.00,,SCT075,0.00,34.50,VWS V14.01,2013-04-15 00:19:00,
2013-04-14 19:24:00,76.8,53.9,29.52,SSW,212,0.0,10.0,45,0.00,,SCT075,0.00,26.45,VWS V14.01,2013-04-15 00:24:00,
2013-04-14 19:29:00,76.6,54.3,29.52,South,188,14.0,14.0,46,0.00,,SCT075,0.00,20.70,VWS V14.01,2013-04-15 00:29:00,
2013-04-14 19:34:00,76.4,54.7,29.52,SSW,199,5.0,14.0,47,0.00,,CLR,0.00,16.10,VWS V14.01,2013-04-15 00:34:00,
2013-04-14 19:39:00,76.2,55.1,29.52,South,184,0.0,13.0,48,0.00,,CLR,0.00,10.35,VWS V14.01,2013-04-15 00:39:00,
2013-04-14 19:44:00,75.9,54.8,29.52,South,187,0.0,9.0,48,0.00,,CLR,0.00,8.05,VWS V14.01,2013-04-15 00:44:00,
2013-04-14 19:49:00,75.5,55.0,29.53,South,171,0.0,5.0,49,0.00,,CLR,0.00,5.75,VWS V14.01,2013-04-15 00:49:00,
2013-04-14 19:54:00,75.3,54.8,29.53,SSW,192,0.0,9.0,49,0.00,,CLR,0.00,0.00,VWS V14.01,2013-04-15 00:54:00,
2013-04-14 19:59:00,75.2,55.3,29.53,South,191,0.0,7.0,50,0.00,,CLR,0.00,0.00,VWS V14.01,2013-04-15 00:59:00,
2013-04-14 20:04:00,74.8,55.5,29.54,SSW,192,0.0,7.0,51,0.00,,CLR,0.00,0.00,VWS V14.01,2013-04-15 01:04:00,
2013-04-14 20:09:00,74.6,55.3,29.54,SSW,202,0.0,9.0,51,0.00,,CLR,0.00,0.00,VWS V14.01,2013-04-15 01:09:00,
2013-04-14 20:14:00,74.3,55.6,29.54,SSW,192,4.0,11.0,52,0.00,,CLR,0.00,0.00,VWS V14.01,2013-04-15 01:14:00,
2013-04-14 20:19:00,74.1,55.4,29.55,South,190,0.0,7.0,52,0.00,,CLR,0.00,0.00,VWS V14.01,2013-04-15 01:19:00,
2013-04-14 20:24:00,73.9,55.7,29.55,South,186,0.0,6.0,53,0.00,,CLR,0.00,0.00,VWS V14.01,2013-04-15 01:24:00,
2013-04-14 20:29:00,73.8,55.6,29.55,South,185,0.0,0.0,53,0.00,,CLR,0.00,0.00,VWS V14.01,2013-04-15 01:29:00,
2013-04-14 20:34:00,73.6,55.4,29.56,South,185,0.0,3.0,53,0.00,,CLR,0.00,0.00,VWS V14.01,2013-04-15 01:34:00,
2013-04-14 20:39:00,73.6,56.0,29.56,South,185,0.0,0.0,54,0.00,,CLR,0.00,0.00,VWS V14.01,2013-04-15 01:39:00,
2013-04-14 20:44:00,73.2,55.6,29.56,South,184,0.0,0.0,54,0.00,,CLR,0.00,0.00,VWS V14.01,2013-04-15 01:44:00,
2013-04-14 20:49:00,73.1,56.0,29.56,South,184,0.0,0.0,55,0.00,,CLR,0.00,0.00,VWS V14.01,2013-04-15 01:49:00,
2013-04-14 20:54:00,72.9,55.8,29.56,South,184,0.0,0.0,55,0.00,,CLR,0.00,0.00,VWS V14.01,2013-04-15 01:54:00,
2013-04-14 20:59:00,72.7,56.1,29.56,South,184,0.0,0.0,56,0.00,,CLR,0.00,0.00,VWS V14.01,2013-04-15 01:59:00,
2013-04-14 21:04:00,72.5,55.9,29.57,South,184,0.0,0.0,56,0.00,,FEW070,0.00,0.00,VWS V14.01,2013-04-15 02:04:00,
2013-04-14 21:09:00,72.4,56.3,29.57,South,184,0.0,1.0,57,0.00,,FEW070,0.00,0.00,VWS V14.01,2013-04-15 02:09:00,
2013-04-14 21:14:00,72.2,56.1,29.57,South,184,4.0,6.0,57,0.00,,FEW070,0.00,0.00,VWS V14.01,2013-04-15 02:14:00,
2013-04-14 21:19:00,71.8,56.2,29.57,South,181,0.0,6.0,58,0.00,,FEW070,0.00,0.00,VWS V14.01,2013-04-15 02:19:00,
2013-04-14 21:24:00,71.7,56.6,29.57,South,181,0.0,0.0,59,0.00,,FEW070,0.00,0.00,VWS V14.01,2013-04-15 02:24:00,
2013-04-14 21:29:00,71.5,56.4,29.57,South,181,0.0,0.0,59,0.00,,FEW070,0.00,0.00,VWS V14.01,2013-04-15 02:29:00,
2013-04-14 21:34:00,71.3,56.7,29.58,South,181,0.0,0.0,60,0.00,,FEW070,0.00,0.00,VWS V14.01,2013-04-15 02:34:00,
2013-04-14 21:39:00,71.3,56.7,29.58,South,181,0.0,0.0,60,0.00,,FEW070,0.00,0.00,VWS V14.01,2013-04-15 02:39:00,
2013-04-14 21:44:00,71.2,56.6,29.58,South,181,0.0,0.0,60,0.00,,FEW070,0.00,0.00,VWS V14.01,2013-04-15 02:44:00,
2013-04-14 21:49:00,71.0,56.4,29.59,South,180,0.0,2.0,60,0.00,,FEW070,0.00,0.00,VWS V14.01,2013-04-15 02:49:00,
2013-04-14 21:54:00,70.8,56.7,29.59,South,180,0.0,0.0,61,0.00,,FEW070,0.00,0.00,VWS V14.01,2013-04-15 02:54:00,
2013-04-14 21:59:00,70.6,56.5,29.59,South,180,0.0,0.0,61,0.00,,FEW070,0.00,0.00,VWS V14.01,2013-04-15 02:59:00,
2013-04-14 22:04:00,70.5,56.9,29.60,South,180,0.0,0.0,62,0.00,,CLR,0.00,0.00,VWS V14.01,2013-04-15 03:04:00,
2013-04-14 22:09:00,70.3,56.7,29.60,South,180,0.0,0.0,62,0.00,,CLR,0.00,0.00,VWS V14.01,2013-04-15 03:09:00,
2013-04-14 22:14:00,70.3,56.7,29.60,South,180,0.0,0.0,62,0.00,,CLR,0.00,0.00,VWS V14.01,2013-04-15 03:14:00,
2013-04-14 22:19:00,70.1,56.5,29.60,South,180,0.0,0.0,62,0.00,,CLR,0.00,0.00,VWS V14.01,2013-04-15 03:19:00,
2013-04-14 22:24:00,70.0,56.8,29.60,South,180,0.0,0.0,63,0.00,,CLR,0.00,0.00,VWS V14.01,2013-04-15 03:24:00,
2013-04-14 22:29:00,69.6,56.9,29.60,South,180,0.0,0.0,64,0.00,,CLR,0.00,0.00,VWS V14.01,2013-04-15 03:29:00,
2013-04-14 22:34:00,69.4,56.7,29.62,South,180,0.0,0.0,64,0.00,,CLR,0.00,0.00,VWS V14.01,2013-04-15 03:34:00,
2013-04-14 22:39:00,69.3,56.6,29.62,South,180,0.0,0.0,64,0.00,,CLR,0.00,0.00,VWS V14.01,2013-04-15 03:39:00,
2013-04-14 22:44:00,69.1,56.4,29.62,South,180,0.0,0.0,64,0.00,,CLR,0.00,0.00,VWS V14.01,2013-04-15 03:44:00,
2013-04-14 22:49:00,68.9,56.7,29.62,South,180,0.0,0.0,65,0.00,,CLR,0.00,0.00,VWS V14.01,2013-04-15 03:49:00,
2013-04-14 22:54:00,68.8,57.0,29.62,South,180,0.0,0.0,66,0.00,,CLR,0.00,0.00,VWS V14.01,2013-04-15 03:54:00,
2013-04-14 22:59:00,68.6,56.8,29.62,South,180,0.0,0.0,66,0.00,,CLR,0.00,0.00,VWS V14.01,2013-04-15 03:59:00,
2013-04-14 23:00:00,68.4,56.6,29.63,South,180,0.0,0.0,66,0.00,,CLR,0.00,0.00,VWS V14.01,2013-04-15 04:00:00,
2013-04-14 23:05:00,68.3,56.9,29.63,South,180,0.0,0.0,67,0.00,,CLR,0.00,0.00,VWS V14.01,2013-04-15 04:05:00,
2013-04-14 23:10:00,68.1,57.2,29.63,South,180,0.0,0.0,68,0.00,,CLR,0.00,0.00,VWS V14.01,2013-04-15 04:10:00,
2013-04-14 23:15:00,67.8,57.3,29.65,SSW,195,0.0,0.0,69,0.00,,CLR,0.00,0.00,VWS V14.01,2013-04-15 04:15:00,
2013-04-14 23:20:00,67.4,54.8,29.65,NNW,335,2.0,9.0,64,0.00,,CLR,0.00,0.00,VWS V14.01,2013-04-15 04:20:00,
2013-04-14 23:25:00,67.1,52.8,29.65,North,360,6.0,10.0,60,0.00,,CLR,0.00,0.00,VWS V14.01,2013-04-15 04:25:00,
2013-04-14 23:30:00,67.3,52.5,29.66,West,272,7.0,12.0,59,0.00,,CLR,0.00,0.00,VWS V14.01,2013-04-15 04:30:00,
2013-04-14 23:35:00,67.3,51.1,29.66,North,5,14.0,14.0,56,0.00,,CLR,0.00,0.00,VWS V14.01,2013-04-15 04:35:00,
2013-04-14 23:40:00,66.8,48.6,29.66,NNW,341,6.0,16.0,52,0.00,,CLR,0.00,0.00,VWS V14.01,2013-04-15 04:40:00,
2013-04-14 23:45:00,66.1,48.5,29.67,NNE,22,5.0,18.0,53,0.00,,CLR,0.00,0.00,VWS V14.01,2013-04-15 04:45:00,
2013-04-14 23:50:00,65.8,48.2,29.67,NNE,19,3.0,13.0,53,0.00,,CLR,0.00,0.00,VWS V14.01,2013-04-15 04:50:00,
2013-04-14 23:55:00,65.6,48.0,29.67,NNE,22,4.0,6.0,53,0.00,,CLR,0.00,0.00,VWS V14.01,2013-04-15 04:55:00,